Main page
Satellite images Climate Cyclones Lightning AirportsFAQ Languages Contact Newsletter About
Weather : Europe Africa North America South America Asia Australia-Oceania Others

1217, Macau, Macau International Airport

latitude: , longitude: China, elevation: 22-10N m


METAR: VMMC 160900Z VRB01KT 7000 NSC 19/12 Q1012 NOSIG